Amsterdam, Netherlands

10:26 AM CEST on July 24, 2016 (GMT +0200)
Schiphol

Weather History for EHAM - June, 2013

Change the Weather History Date:

Sunday, June 16, 2013

  Actual Average Record
Temperature  
Mean Temperature 58 °F -  
Max Temperature 64 °F 67 °F 75 °F (1999)
Min Temperature 53 °F 53 °F 44 °F (2008)
Degree Days  
Heating Degree Days 6    
Growing Degree Days 8 (Base 50)    
Moisture  
Dew Point 48 °F    
Average Humidity 69    
Maximum Humidity 88    
Minimum Humidity 45    
Precipitation  
Precipitation 0.00 in - - ()
Sea Level Pressure  
Sea Level Pressure 29.95 in    
Wind  
Wind Speed 13 mph ()    
Max Wind Speed 21 mph    
Max Gust Speed -    
Visibility 7.6 miles    
Events Rain    
Averages and records for this station are not official NWS values.
T = Trace of Precipitation, MM = Missing Value Source: Averaged Metar Reports

Daily Weather History Graph

Daily Weather History Graph

Search for Another Location

Airport or City:

Trip Planner

Search our weather history database for the weather conditions in past years. The results will help you decide how hot, cold, wet, or windy it might be!

Date:

Astronomy

Jun. 16, 2013 Rise Set
Actual Time 5:18 AM CEST 10:04 PM CEST
Civil Twilight 4:28 AM CEST 10:54 PM CEST
Nautical Twilight 3:08 AM CEST 12:15 AM CEST
Astronomical Twilight Sun does not set Sun does not set
Moon 1:32 PM CEST (6/16) 1:11 AM CEST (6/16)
Length of Visible Light 18h 25m
Length of Day
16h 46m
Waxing Crescent, 47% of the Moon is Illuminated
Jun 16
Waxing Crescent
Jun 16
First Quarter
Jun 23
Full
Jun 30
Last Quarter
Jul 8
New

Hourly Weather History & Observations

Time (CEST) Temp. Dew Point Humidity Pressure Visibility Wind Dir Wind Speed Gust Speed Precip Events Conditions
12:25 AM 55.4 °F 46.4 °F 72% 29.89 in - SW 12.7 mph - N/A   Clear
12:55 AM 55.4 °F 48.2 °F 77% 29.89 in - SW 15.0 mph - N/A   Clear
1:25 AM 55.4 °F 48.2 °F 77% 29.89 in - SW 16.1 mph - N/A   Clear
1:55 AM 55.4 °F 48.2 °F 77% 29.89 in 6.2 mi SW 18.4 mph - N/A   Partly Cloudy
2:00 AM 54 °F 49 °F 77% 29.90 in 7 mi SW 15.7 mph - -   Partly Cloudy
2:25 AM 55.4 °F 50.0 °F 82% 29.89 in 6.2 mi SW 17.3 mph - N/A   Partly Cloudy
2:55 AM 53.6 °F 50.0 °F 88% 29.89 in 6.2 mi SW 15.0 mph - N/A   Partly Cloudy
3:25 AM 55.4 °F 50.0 °F 82% 29.89 in 6.2 mi SW 13.8 mph - N/A   Scattered Clouds
3:55 AM 55.4 °F 50.0 °F 82% 29.89 in 6.2 mi SW 16.1 mph - N/A   Scattered Clouds
4:25 AM 55.4 °F 50.0 °F 82% 29.89 in 6.2 mi SW 17.3 mph - N/A   Scattered Clouds
4:55 AM 53.6 °F 50.0 °F 88% 29.89 in 6.2 mi SW 13.8 mph - N/A   Mostly Cloudy
5:00 AM 54 °F 49 °F 79% 29.89 in 7 mi SW 15.7 mph - -   Overcast
5:25 AM 53.6 °F 50.0 °F 88% 29.89 in 6.2 mi SW 15.0 mph - N/A   Mostly Cloudy
5:55 AM 55.4 °F 50.0 °F 82% 29.89 in 6.2 mi SW 16.1 mph - N/A   Mostly Cloudy
6:25 AM 55.4 °F 50.0 °F 82% 29.89 in 6.2 mi SW 16.1 mph - N/A   Mostly Cloudy
6:55 AM 55.4 °F 50.0 °F 82% 29.89 in 6.2 mi SW 13.8 mph - N/A   Scattered Clouds
7:25 AM 55.4 °F 50.0 °F 82% 29.89 in 6.2 mi SW 15.0 mph - N/A   Scattered Clouds
7:55 AM 57.2 °F 50.0 °F 77% 29.89 in 6.2 mi SW 16.1 mph - N/A   Scattered Clouds
8:00 AM 57 °F 50 °F 71% 29.92 in 8 mi SW 15.7 mph - -   Partly Cloudy
8:25 AM 57.2 °F 50.0 °F 77% 29.92 in 6.2 mi WSW 17.3 mph - N/A   Mostly Cloudy
8:55 AM 57.2 °F 48.2 °F 72% 29.92 in 6.2 mi WSW 16.1 mph - N/A   Scattered Clouds
9:25 AM 59.0 °F 50.0 °F 72% 29.92 in 6.2 mi WSW 20.7 mph - N/A   Scattered Clouds
9:55 AM 59.0 °F 48.2 °F 67% 29.92 in 6.2 mi WSW 20.7 mph - N/A   Scattered Clouds
10:25 AM 60.8 °F 50.0 °F 68% 29.92 in 6.2 mi SW 20.7 mph - N/A   Scattered Clouds
10:55 AM 59.0 °F 48.2 °F 67% 29.95 in 6.2 mi WSW 18.4 mph - N/A   Scattered Clouds
11:00 AM 60 °F 48 °F 56% 29.96 in 12 mi WSW 20.1 mph - -   Partly Cloudy
11:25 AM 60.8 °F 50.0 °F 68% 29.95 in 6.2 mi WSW 17.3 mph - N/A   Scattered Clouds
11:55 AM 60.8 °F 51.8 °F 72% 29.95 in 6.2 mi WSW 18.4 mph - N/A   Mostly Cloudy
12:25 PM 60.8 °F 50.0 °F 68% 29.95 in 6.2 mi West 17.3 mph - N/A   Mostly Cloudy
12:55 PM 62.6 °F 51.8 °F 68% 29.98 in 6.2 mi WSW 16.1 mph - N/A   Mostly Cloudy
1:25 PM 62.6 °F 51.8 °F 68% 29.98 in 6.2 mi WSW 15.0 mph - N/A   Partly Cloudy
1:55 PM 62.6 °F 50.0 °F 63% 29.98 in 6.2 mi WSW 15.0 mph - N/A   Partly Cloudy
2:00 PM 63 °F 50 °F 52% 29.99 in 14 mi WSW 15.7 mph - -   Partly Cloudy
2:25 PM 62.6 °F 48.2 °F 59% 29.98 in 6.2 mi WSW 15.0 mph - N/A   Partly Cloudy
2:55 PM 62.6 °F 48.2 °F 59% 29.98 in 6.2 mi WSW 16.1 mph - N/A   Partly Cloudy
3:25 PM 62.6 °F 50.0 °F 63% 29.98 in 6.2 mi West 15.0 mph - N/A   Partly Cloudy
3:55 PM 60.8 °F 48.2 °F 63% 30.01 in 6.2 mi West 15.0 mph - N/A   Partly Cloudy
4:25 PM 60.8 °F 48.2 °F 63% 30.01 in 6.2 mi West 15.0 mph - N/A   Partly Cloudy
4:55 PM 60.8 °F 44.6 °F 55% 30.01 in - West 11.5 mph - N/A   Clear
5:00 PM 61 °F 45 °F 45% 30.01 in 19 mi West 11.2 mph - -   Scattered Clouds
5:25 PM 60.8 °F 42.8 °F 52% 29.98 in - West 9.2 mph - N/A   Clear
5:55 PM 60.8 °F 44.6 °F 55% 30.01 in - WSW 11.5 mph - N/A   Clear
6:25 PM 60.8 °F 44.6 °F 55% 30.01 in - WSW 11.5 mph - N/A   Clear
6:55 PM 60.8 °F 44.6 °F 55% 30.01 in - WSW 9.2 mph - N/A   Clear
7:25 PM 59.0 °F 42.8 °F 55% 30.01 in 6.2 mi West 9.2 mph - N/A Rain Light Rain
7:55 PM 59.0 °F 46.4 °F 63% 30.01 in 6.2 mi WNW 6.9 mph - N/A Rain Light Rain
8:00 PM 59 °F 46 °F 53% 30.02 in 19 mi WNW 6.7 mph - - Rain Light Drizzle
8:25 PM 59.0 °F 44.6 °F 59% 30.01 in 6.2 mi West 4.6 mph - N/A Rain Light Rain
8:55 PM 59.0 °F 44.6 °F 59% 30.01 in - Variable 2.3 mph - N/A   Clear
9:25 PM 57.2 °F 46.4 °F 67% 29.98 in - NNW 3.5 mph - N/A   Clear
9:55 PM 57.2 °F 44.6 °F 63% 30.01 in - Variable 2.3 mph - N/A   Clear
10:25 PM 55.4 °F 48.2 °F 77% 30.01 in - ENE 3.5 mph - N/A   Clear
10:55 PM 55.4 °F 46.4 °F 72% 30.01 in - NNW 3.5 mph - N/A   Clear
11:00 PM 55 °F 47 °F 66% 30.03 in 19 mi NNW 4.5 mph - -   Partly Cloudy
11:25 PM 53.6 °F 48.2 °F 82% 30.01 in - North 3.5 mph - N/A   Clear
11:55 PM 53.6 °F 46.4 °F 77% 30.01 in - NNE 4.6 mph - N/A   Clear